TimeCDT,TemperatureF,Dew PointF,Humidity,Sea Level PressureIn,VisibilityMPH,Wind Direction,Wind SpeedMPH,Gust SpeedMPH,PrecipitationIn,Events,Conditions,WindDirDegrees,DateUTC
12:53 AM,71.6,57.2,60,29.82,10.0,SSE,9.2,-,N/A,,Clear,160,2013-05-01 05:53:00
1:53 AM,69.1,57.0,65,29.81,10.0,SSE,10.4,-,N/A,,Clear,150,2013-05-01 06:53:00
2:53 AM,69.1,57.0,65,29.81,10.0,SSE,9.2,-,N/A,,Clear,150,2013-05-01 07:53:00
3:53 AM,66.0,57.9,75,29.81,10.0,SE,9.2,-,N/A,,Clear,140,2013-05-01 08:53:00
4:53 AM,64.0,59.0,84,29.81,10.0,SE,6.9,-,N/A,,Clear,130,2013-05-01 09:53:00
5:53 AM,64.4,59.0,83,29.83,9.0,SSE,8.1,-,N/A,,Clear,160,2013-05-01 10:53:00
6:53 AM,62.6,59.0,88,29.84,8.0,SE,9.2,-,N/A,,Clear,130,2013-05-01 11:53:00
7:53 AM,66.0,60.1,81,29.84,10.0,SE,9.2,-,N/A,,Clear,140,2013-05-01 12:53:00
8:53 AM,70.0,62.1,76,29.87,10.0,SE,13.8,-,N/A,,Partly Cloudy,140,2013-05-01 13:53:00
9:53 AM,73.0,63.0,71,29.89,10.0,SSE,18.4,25.3,N/A,,Partly Cloudy,150,2013-05-01 14:53:00
10:53 AM,75.9,64.9,69,29.92,10.0,SE,13.8,23.0,N/A,,Scattered Clouds,140,2013-05-01 15:53:00
11:53 AM,79.0,64.0,60,29.92,10.0,South,12.7,-,N/A,,Mostly Cloudy,170,2013-05-01 16:53:00
12:53 PM,80.1,64.9,60,29.93,10.0,SSE,10.4,-,N/A,,Mostly Cloudy,150,2013-05-01 17:53:00
1:53 PM,80.1,64.0,58,29.91,10.0,Variable,6.9,19.6,N/A,,Mostly Cloudy,0,2013-05-01 18:53:00
2:53 PM,82.9,63.0,51,29.89,10.0,SSE,19.6,25.3,N/A,,Scattered Clouds,150,2013-05-01 19:53:00
3:53 PM,82.4,57.2,42,29.91,10.0,SE,20.7,29.9,N/A,,Scattered Clouds,140,2013-05-01 20:53:00
4:53 PM,82.9,60.1,46,29.90,10.0,SE,19.6,25.3,N/A,,Scattered Clouds,130,2013-05-01 21:53:00
5:53 PM,82.0,61.0,49,29.91,10.0,South,13.8,21.9,N/A,,Scattered Clouds,180,2013-05-01 22:53:00
6:53 PM,80.1,60.1,50,29.92,10.0,SSE,13.8,-,N/A,,Scattered Clouds,160,2013-05-01 23:53:00
7:53 PM,78.1,57.0,48,29.94,10.0,SE,17.3,-,N/A,,Scattered Clouds,140,2013-05-02 00:53:00
8:53 PM,75.2,57.2,53,29.98,10.0,SE,15.0,23.0,N/A,,Scattered Clouds,130,2013-05-02 01:53:00
9:53 PM,73.0,55.9,55,30.01,10.0,SE,13.8,-,N/A,,Scattered Clouds,140,2013-05-02 02:53:00
10:53 PM,72.0,57.9,61,30.01,10.0,SE,6.9,-,N/A,,Scattered Clouds,140,2013-05-02 03:53:00
11:53 PM,57.0,46.9,69,30.06,10.0,North,24.2,-,N/A,,Scattered Clouds,350,2013-05-02 04:53:00